North Las Vegas, NV

8:23 PM PST on November 21, 2017 (GMT -0800)
North Las Vegas

Weather History for KVGT - January, 2012

Change the Weather History Date:

Monday, January 30, 2012

  Actual Average Record
Temperature  
Mean Temperature 48 °F 50 °F  
Max Temperature 61 °F 60 °F 73 °F (2014)
Min Temperature 35 °F 40 °F 31 °F (2008)
Degree Days  
Heating Degree Days 17 15  
Month to date heating degree days 512  
Since 1 July heating degree days 1392  
Cooling Degree Days 0 0  
Month to date cooling degree days 0  
Year to date cooling degree days 0  
Moisture  
Dew Point 10 °F    
Average Humidity 22    
Maximum Humidity 33    
Minimum Humidity 12    
Precipitation  
Precipitation 0.00 in 0.02 in 0.26 in (2015)
Month to date precipitation 0.68  
Year to date precipitation 0.68  
Sea Level Pressure  
Sea Level Pressure 30.08 in    
Wind  
Wind Speed 3 mph (NW)    
Max Wind Speed 7 mph    
Max Gust Speed -    
Visibility 10 miles    
Events      
T = Trace of Precipitation, MM = Missing Value Source: NWS Daily Summary

Daily Weather History Graph

Daily Weather History Graph

Search for Another Location

Airport or City:

Trip Planner

Search our weather history database for the weather conditions in past years. The results will help you decide how hot, cold, wet, or windy it might be!

Date:

Astronomy

Jan. 30, 2012 Rise Set
Actual Time 6:43 AM PST 5:04 PM PST
Civil Twilight 6:16 AM PST 5:32 PM PST
Nautical Twilight 5:45 AM PST 6:02 PM PST
Astronomical Twilight 5:15 AM PST 6:33 PM PST
Moon 10:24 AM PST (1/30) No Moon Set
Length of Visible Light 11h 15m
Length of Day
10h 21m
Waxing Crescent, 47% of the Moon is Illuminated
Jan 30
Waxing Crescent
Jan 30
First Quarter
Feb 7
Full
Feb 14
Last Quarter
Feb 21
New

Hourly Weather History & Observations

Time (PST) Temp. Windchill Dew Point Humidity Pressure Visibility Wind Dir Wind Speed Gust Speed Precip Events Conditions
12:53 AM 41.0 °F 39.0 °F 9.0 °F 27% 30.16 in 10.0 mi NNW 3.5 mph - N/A   Clear
1:53 AM 37.9 °F 33.5 °F 9.0 °F 30% 30.15 in 10.0 mi NW 5.8 mph - N/A   Clear
2:53 AM 37.0 °F 32.4 °F 8.1 °F 30% 30.13 in 10.0 mi NW 5.8 mph - N/A   Clear
3:53 AM 35.6 °F 31.7 °F 8.6 °F 33% 30.06 in 10.0 mi NNW 4.6 mph - N/A   Clear
4:53 AM 37.9 °F 32.7 °F 9.0 °F 30% 30.12 in 10.0 mi WNW 6.9 mph - N/A   Clear
5:53 AM 37.0 °F - 9.0 °F 31% 30.13 in 10.0 mi Calm Calm - N/A   Clear
6:53 AM 39.0 °F - 9.0 °F 29% 30.14 in 10.0 mi Calm Calm - N/A   Clear
7:53 AM 39.0 °F - 10.9 °F 32% 30.14 in 10.0 mi Calm Calm - N/A   Clear
8:53 AM 46.9 °F - 10.0 °F 22% 30.14 in 10.0 mi Calm Calm - N/A   Clear
9:53 AM 52.0 °F - 7.0 °F 16% 30.14 in 10.0 mi Calm Calm - N/A   Clear
10:53 AM 53.6 °F - 8.6 °F 16% 30.07 in 10.0 mi Calm Calm - N/A   Clear
11:53 AM 55.9 °F - 10.0 °F 16% 30.09 in 10.0 mi Calm Calm - N/A   Clear
12:53 PM 57.0 °F - 8.1 °F 14% 30.05 in 10.0 mi SSE 4.6 mph - N/A   Clear
1:53 PM 59.0 °F - 7.0 °F 13% 30.04 in 10.0 mi SE 3.5 mph - N/A   Clear
2:53 PM 60.1 °F - 7.0 °F 12% 30.03 in 10.0 mi Calm Calm - N/A   Clear
3:53 PM 61.0 °F - 7.0 °F 12% 30.03 in 10.0 mi Calm Calm - N/A   Clear
4:53 PM 59.0 °F - 6.8 °F 13% 29.96 in 10.0 mi Calm Calm - N/A   Clear
5:53 PM 57.0 °F - 9.0 °F 15% 30.03 in 10.0 mi SW 3.5 mph - N/A   Clear
6:53 PM 54.0 °F - 10.9 °F 18% 30.04 in 10.0 mi Calm Calm - N/A   Clear
7:53 PM 51.1 °F - 14.0 °F 23% 30.06 in 10.0 mi Calm Calm - N/A   Clear
8:53 PM 50.0 °F - 14.0 °F 24% 30.05 in 10.0 mi NW 4.6 mph - N/A   Clear
9:53 PM 48.9 °F - 14.0 °F 25% 30.04 in 10.0 mi NW 3.5 mph - N/A   Clear
10:53 PM 48.0 °F - 15.1 °F 27% 30.05 in 10.0 mi NW 4.6 mph - N/A   Clear
11:53 PM 46.9 °F - 15.1 °F 28% 30.04 in 10.0 mi North 5.8 mph - N/A   Partly Cloudy